Location: Bednik
(45.3500°N, 16.3833°E)
Time: 17:53:05
(UTC+00:00)

SL-4 R/B - Pass Details

Date: 08 August 2020
Orbit: 428 x 665 km, 51.6° (Epoch: 24 September)

Event Time Altitude Azimuth Distance (km) Brightness Sun altitude
Rises 19:03:24 0° 213° (SSW) 2,718 5.6 -8.8°
Reaches altitude 10° 19:05:52 10° 204° (SSW) 1,782 4.5 -9.1°
Maximum altitude 19:09:29 32° 140° (SE) 883 2.6 -9.7°
Drops below altitude 10° 19:12:52 10° 76° (ENE) 1,666 4.1 -10.1°
Sets 19:15:05 0° 66° (ENE) 2,512 5.1 -10.5°
